#timestamp,LO_Frequency,Hit,StdDev 
1515013215.8,286047000.9,N
1515013235.6,286046999.7,N
1515013255.4,286046998.3,N
1515013275.3,286047002.1,N
1515013295.1,286047004.0,N
1515013315.9,286047004.7,N
1515013335.7,286047001.7,N
1515013355.5,286046999.9,N
1515013375.4,286047001.4,N
1515013395.2,286047002.8,N
1515013415.0,286047001.4,N
1515013415.9,286047001.4,N
1515013435.8,286047003.2,N
1515013455.6,286047005.5,N
1515013475.5,286047002.1,N
1515013495.3,286047002.2,N
1515013515.1,286047000.2,N
1515013535.9,286047011.9,Y
1515013555.7,286046999.7,P
1515013575.6,286047002.3,N
1515013595.4,286047001.0,N
1515013615.2,286047000.4,N
1515013635.1,286046999.7,N
1515013636.0,286046999.7,N
1515013655.8,286046999.1,N
1515013675.6,286047000.2,N
1515013695.5,286046999.7,N
1515013715.3,286046999.7,N
1515013735.2,286047001.3,N
1515013755.9,286047001.8,N
1515013775.7,286047000.5,N
1515013795.6,286047001.1,N
1515013815.4,286047001.1,N
1515013835.3,286046997.0,Y
1515013855.1,286047000.5,P
1515013856.0,286047000.5,P
1515013875.8,286047000.2,P
1515013895.7,286046998.5,Y
1515013915.5,286047000.0,P
1515013935.3,286047002.1,P
1515013955.2,286047001.9,N
1515013975.0,286046999.7,N
1515013975.9,286046999.7,N
1515013995.8,286046998.8,N
1515014015.6,286046999.2,N
1515014035.4,286046998.3,N
1515014055.3,286046996.7,N
1515014075.1,286047001.2,N
1515014095.9,286046999.6,N
1515014115.7,286046999.2,N
1515014135.5,286047000.8,N
1515014155.4,286046999.6,N
1515014175.2,286047000.4,N
1515014195.0,286047000.2,N
1515014195.9,286047000.2,N
1515014215.8,286046999.1,N
1515014235.6,286047000.0,N
1515014255.5,286047002.5,N
1515014275.3,286047004.4,Y
1515014295.1,286047004.2,P
1515014315.9,286046999.8,N
1515014335.7,286047002.7,N
1515014355.6,286047000.1,N
1515014375.4,286047002.7,N
1515014395.2,286047002.8,N
1515014415.1,286047002.6,N
1515014416.0,286047002.6,N
1515014435.8,286047002.1,N
1515014455.6,286047000.2,N
1515014475.5,286047001.8,N
1515014495.3,286047003.5,N
1515014515.2,286047005.9,Y
1515014535.9,286047004.4,P
1515014555.7,286047002.7,N
1515014575.6,286047002.6,N
1515014595.4,286046996.6,Y
1515014615.3,286046995.7,P
1515014635.1,286046997.4,N
1515014636.0,286046997.4,N
1515014655.8,286046997.8,N
1515014675.7,286046997.4,N
1515014695.5,286046994.9,N
1515014715.3,286046997.1,N
1515014735.2,286046997.1,N
1515014755.0,286046996.3,N
1515014755.9,286046996.3,N
1515014775.8,286046995.3,N
1515014795.6,286046996.8,N
1515014815.4,286046995.5,N
1515014835.3,286046995.8,N
1515014855.1,286046993.9,Y
1515014875.9,286046996.8,P
1515014895.7,286046999.2,P
1515014915.5,286046999.2,N
1515014935.4,286046997.7,N
1515014955.2,286046997.9,N
1515014975.1,286046997.5,N
1515014976.0,286046997.5,N
1515014995.8,286046996.0,Y
1515015015.6,286046998.8,P
1515015035.5,286046998.6,N
1515015055.3,286046999.2,N
1515015075.1,286047001.5,N
1515015095.9,286047000.2,N
1515015115.7,286047000.0,N
1515015135.6,286047002.2,N
1515015155.4,286047001.9,N
1515015175.2,286047003.8,N
1515015195.1,286047004.1,N
1515015196.0,286047004.1,N
1515015215.8,286046999.9,N
1515015235.7,286047003.5,N
1515015255.5,286047000.1,N
1515015275.3,286047002.4,N
1515015295.2,286047002.3,N
1515015315.0,286047002.3,N
1515015315.9,286047002.3,N
1515015335.8,286047002.1,N
1515015355.6,286047011.9,Y
1515015375.4,286047002.8,P
1515015395.3,286047003.7,P
1515015415.1,286047002.4,N
1515015435.8,286047002.0,N
1515015455.7,286047003.7,Y
1515015475.5,286047000.0,P
1515015495.4,286047001.0,N
1515015515.2,286046998.1,N
1515015535.0,286046997.0,N
1515015535.9,286046997.0,N
1515015555.8,286046998.1,N
1515015575.6,286046998.5,N
1515015595.5,286046999.0,N
1515015615.3,286046998.3,N
1515015635.1,286046998.1,N
1515015655.9,286047002.6,N
1515015675.7,286047001.2,N
1515015695.5,286046999.3,N
1515015715.4,286047001.0,N
1515015735.2,286047000.7,N
1515015755.1,286046996.7,N
1515015756.0,286046996.7,N
1515015775.8,286046997.9,N
1515015795.6,286046994.9,N
1515015815.5,286046998.0,N
1515015835.3,286046996.0,N
1515015855.2,286046994.8,N
1515015875.9,286046995.9,N
1515015895.7,286046997.7,N
1515015915.6,286046997.2,N
1515015935.4,286046997.1,N
1515015955.2,286046996.6,N
1515015975.1,286046997.7,N
1515015976.0,286046997.7,N
1515015995.8,286046997.3,N
1515016015.7,286046997.8,N
1515016035.5,286046997.9,N
1515016055.3,286046993.4,Y
1515016075.2,286046999.6,P
1515016095.0,286046999.0,N
1515016095.9,286046999.0,N
1515016115.8,286046999.4,N
1515016135.6,286046997.8,Y
1515016155.4,286046999.0,P
1515016175.3,286047000.8,P
1515016195.1,286047001.6,N
1515016215.9,286047000.0,N
1515016235.7,286047001.1,N
1515016255.5,286046999.9,N
1515016275.4,286047000.3,N
1515016295.2,286046998.9,N
1515016315.0,286046997.3,N
1515016316.0,286046997.3,N
1515016335.8,286046997.5,N
1515016355.6,286046999.5,N
1515016375.5,286046996.0,N
1515016395.3,286046995.8,N
1515016415.1,286046995.8,N
1515016435.9,286046993.6,Y
1515016455.7,286046997.3,P
1515016475.6,286046997.4,P
1515016495.4,286046996.3,P
1515016515.2,286046995.6,Y
1515016535.1,286046996.9,P
1515016536.0,286046996.9,P
1515016555.8,286046996.6,P
1515016575.7,286046997.0,Y
1515016595.5,286047004.0,P
1515016615.3,286047001.3,N
1515016635.2,286047001.3,N
1515016655.0,286047001.8,N
1515016655.9,286047001.8,N
1515016675.8,286047001.5,N
1515016695.6,286047002.0,N
1515016715.4,286047002.1,N
1515016735.3,286047004.1,N
1515016755.1,286047002.2,N
1515016775.8,286047002.4,N
1515016795.7,286047004.3,N
